Location: Hawks Ness
(60.2333°N, 1.1667°W)
Time: 01:48:51
(UTC+00:00)

Cosmos 1536 Rocket - Pass Details

Date: 22 October 2019
Orbit: 606 x 632 km, 82.5° (Epoch: 17 November)

Event Time Altitude Azimuth Distance (km) Brightness Sun altitude
Exits shadow 04:29:55 46° 248° (WSW) 829 3.7 -19.3°
Maximum altitude 04:30:47 54° 290° (WNW) 745 3.6 -19.2°
Drops below altitude 10° 04:35:06 10° 9° (N) 1,985 6.4 -18.6°
Sets 04:37:23 0° 14° (NNE) 2,898 7.3 -18.4°
